Time,TemperatureF,DewpointF,PressureIn,WindDirection,WindDirectionDegrees,WindSpeedMPH,WindSpeedGustMPH,Humidity,HourlyPrecipIn,Conditions,Clouds,dailyrainin,SolarRadiationWatts/m^2,SoftwareType,DateUTC
2013-01-23 00:12:00,15.0,-1.0,-100.00,West,280,7.0,12.0,48,0.00,,,0.00,0.000000,,2013-01-23 05:12:00,
2013-01-23 00:23:00,15.0,-1.0,-100.00,West,280,7.0,12.0,48,0.00,,,0.00,0.000000,,2013-01-23 05:23:00,
2013-01-23 00:33:00,15.0,-1.0,-100.00,West,280,7.0,12.0,48,0.00,,,0.00,0.000000,,2013-01-23 05:33:00,
2013-01-23 00:43:00,15.0,-1.0,-100.00,West,280,7.0,12.0,48,0.00,,,0.00,0.000000,,2013-01-23 05:43:00,
2013-01-23 01:13:00,15.0,-2.0,-100.00,WNW,283,8.0,11.0,47,0.00,,,0.00,0.000000,,2013-01-23 06:13:00,
2013-01-23 01:23:00,15.0,-2.0,-100.00,WNW,283,8.0,11.0,47,0.00,,,0.00,0.000000,,2013-01-23 06:23:00,
2013-01-23 01:33:00,15.0,-2.0,-100.00,WNW,283,8.0,11.0,47,0.00,,,0.00,0.000000,,2013-01-23 06:33:00,
2013-01-23 01:43:00,15.0,-2.0,-100.00,WNW,283,8.0,11.0,47,0.00,,,0.00,0.000000,,2013-01-23 06:43:00,
2013-01-23 02:13:00,15.0,-2.0,-100.00,West,281,5.0,11.0,46,0.00,,,0.00,0.000000,,2013-01-23 07:13:00,
2013-01-23 02:23:00,15.0,-2.0,-100.00,West,281,5.0,11.0,46,0.00,,,0.00,0.000000,,2013-01-23 07:23:00,
2013-01-23 02:33:00,15.0,-2.0,-100.00,West,281,5.0,11.0,46,0.00,,,0.00,0.000000,,2013-01-23 07:33:00,
2013-01-23 02:43:00,15.0,-2.0,-100.00,West,281,5.0,11.0,46,0.00,,,0.00,0.000000,,2013-01-23 07:43:00,
2013-01-23 03:13:00,12.0,-3.0,-100.00,WNW,289,5.0,11.0,49,0.00,,,0.00,0.000000,,2013-01-23 08:13:00,
2013-01-23 03:23:00,12.0,-3.0,-100.00,WNW,289,5.0,11.0,49,0.00,,,0.00,0.000000,,2013-01-23 08:23:00,
2013-01-23 03:33:00,12.0,-3.0,-100.00,WNW,289,5.0,11.0,49,0.00,,,0.00,0.000000,,2013-01-23 08:33:00,
2013-01-23 03:43:00,12.0,-3.0,-100.00,WNW,289,5.0,11.0,49,0.00,,,0.00,0.000000,,2013-01-23 08:43:00,
2013-01-23 04:12:00,10.0,-3.0,-100.00,SSW,211,0.0,9.0,54,0.00,,,0.00,0.000000,,2013-01-23 09:12:00,
2013-01-23 04:23:00,10.0,-3.0,-100.00,SSW,211,0.0,9.0,54,0.00,,,0.00,0.000000,,2013-01-23 09:23:00,
2013-01-23 04:33:00,10.0,-3.0,-100.00,SSW,211,0.0,9.0,54,0.00,,,0.00,0.000000,,2013-01-23 09:33:00,
2013-01-23 04:43:00,10.0,-3.0,-100.00,SSW,211,0.0,9.0,54,0.00,,,0.00,0.000000,,2013-01-23 09:43:00,
2013-01-23 05:13:00,8.0,0.0,-100.00,WSW,252,0.0,2.0,69,0.00,,,0.00,0.000000,,2013-01-23 10:13:00,
2013-01-23 05:23:00,8.0,0.0,-100.00,WSW,252,0.0,2.0,69,0.00,,,0.00,0.000000,,2013-01-23 10:23:00,
2013-01-23 05:33:00,8.0,0.0,-100.00,WSW,252,0.0,2.0,69,0.00,,,0.00,0.000000,,2013-01-23 10:33:00,
2013-01-23 05:43:00,8.0,0.0,-100.00,WSW,252,0.0,2.0,69,0.00,,,0.00,0.000000,,2013-01-23 10:43:00,
2013-01-23 06:12:00,7.0,2.0,-100.00,WSW,240,0.0,5.0,78,0.00,,,0.00,0.000000,,2013-01-23 11:12:00,
2013-01-23 06:23:00,7.0,2.0,-100.00,WSW,240,0.0,5.0,78,0.00,,,0.00,0.000000,,2013-01-23 11:23:00,
2013-01-23 06:34:00,7.0,2.0,-100.00,WSW,240,0.0,5.0,78,0.00,,,0.00,0.000000,,2013-01-23 11:34:00,
2013-01-23 06:43:00,7.0,2.0,-100.00,WSW,240,0.0,5.0,78,0.00,,,0.00,0.000000,,2013-01-23 11:43:00,
2013-01-23 07:13:00,9.0,4.0,-100.00,North,360,0.0,2.0,78,0.00,,,0.00,0.000000,,2013-01-23 12:13:00,
2013-01-23 07:23:00,9.0,4.0,-100.00,North,360,0.0,2.0,78,0.00,,,0.00,0.000000,,2013-01-23 12:23:00,
2013-01-23 07:33:00,9.0,4.0,-100.00,North,360,0.0,2.0,78,0.00,,,0.00,0.000000,,2013-01-23 12:33:00,
2013-01-23 07:43:00,9.0,4.0,-100.00,North,360,0.0,2.0,78,0.00,,,0.00,0.000000,,2013-01-23 12:43:00,
2013-01-23 08:13:00,12.0,3.0,-100.00,SW,226,4.0,70.0,65,0.00,,,0.00,0.000000,,2013-01-23 13:13:00,
2013-01-23 08:23:00,12.0,3.0,-100.00,SW,226,4.0,70.0,65,0.00,,,0.00,0.000000,,2013-01-23 13:23:00,
2013-01-23 08:33:00,12.0,3.0,-100.00,SW,226,4.0,70.0,65,0.00,,,0.00,0.000000,,2013-01-23 13:33:00,
2013-01-23 08:43:00,12.0,3.0,-100.00,SW,226,4.0,70.0,65,0.00,,,0.00,0.000000,,2013-01-23 13:43:00,
2013-01-23 10:13:00,15.0,1.0,-100.00,SW,214,4.0,12.0,52,-99.99,,,0.00,76.000000,,2013-01-23 15:13:00,
2013-01-23 10:23:00,15.0,1.0,-100.00,SW,214,4.0,12.0,52,-99.99,,,0.00,76.000000,,2013-01-23 15:23:00,
2013-01-23 10:33:00,15.0,1.0,-100.00,SW,214,4.0,12.0,52,-99.99,,,0.00,76.000000,,2013-01-23 15:33:00,
2013-01-23 10:43:00,15.0,1.0,-100.00,SW,214,4.0,12.0,52,-99.99,,,0.00,76.000000,,2013-01-23 15:43:00,
2013-01-23 11:03:00,17.0,0.0,-100.00,SW,219,4.0,9.0,47,0.00,,,0.00,91.000000,,2013-01-23 16:03:00,
2013-01-23 11:12:00,17.0,0.0,-100.00,SW,219,4.0,9.0,47,0.00,,,0.00,91.000000,,2013-01-23 16:12:00,
2013-01-23 11:23:00,17.0,0.0,-100.00,SW,219,4.0,9.0,47,0.00,,,0.00,91.000000,,2013-01-23 16:23:00,
2013-01-23 11:33:00,17.0,0.0,-100.00,SW,219,4.0,9.0,47,0.00,,,0.00,91.000000,,2013-01-23 16:33:00,
2013-01-23 11:43:00,17.0,0.0,-100.00,SW,219,4.0,9.0,47,0.00,,,0.00,91.000000,,2013-01-23 16:43:00,
2013-01-23 12:13:00,18.0,0.0,-100.00,SW,236,8.0,11.0,45,0.00,,,0.00,115.000000,,2013-01-23 17:13:00,
2013-01-23 12:23:00,18.0,0.0,-100.00,SW,236,8.0,11.0,45,0.00,,,0.00,115.000000,,2013-01-23 17:23:00,
2013-01-23 12:34:00,18.0,0.0,-100.00,SW,236,8.0,11.0,45,0.00,,,0.00,115.000000,,2013-01-23 17:34:00,
2013-01-23 12:43:00,18.0,0.0,-100.00,SW,236,8.0,11.0,45,0.00,,,0.00,115.000000,,2013-01-23 17:43:00,
2013-01-23 13:13:00,20.0,1.0,-100.00,SW,233,5.0,12.0,43,0.00,,,0.00,131.000000,,2013-01-23 18:13:00,
2013-01-23 13:24:00,20.0,1.0,-100.00,SW,233,5.0,12.0,43,0.00,,,0.00,131.000000,,2013-01-23 18:24:00,
2013-01-23 13:33:00,20.0,1.0,-100.00,SW,233,5.0,12.0,43,0.00,,,0.00,131.000000,,2013-01-23 18:33:00,
2013-01-23 13:43:00,20.0,1.0,-100.00,SW,233,5.0,12.0,43,0.00,,,0.00,131.000000,,2013-01-23 18:43:00,
2013-01-23 14:13:00,22.0,3.0,-100.00,SSW,210,6.0,11.0,43,0.00,,,0.00,172.000000,,2013-01-23 19:13:00,
2013-01-23 14:23:00,22.0,3.0,-100.00,SSW,210,6.0,11.0,43,0.00,,,0.00,172.000000,,2013-01-23 19:23:00,
2013-01-23 14:33:00,22.0,3.0,-100.00,SSW,210,6.0,11.0,43,0.00,,,0.00,172.000000,,2013-01-23 19:33:00,
2013-01-23 14:43:00,22.0,3.0,-100.00,SSW,210,6.0,11.0,43,0.00,,,0.00,172.000000,,2013-01-23 19:43:00,
2013-01-23 15:13:00,25.0,5.0,-100.00,SSW,198,4.0,12.0,41,0.00,,,0.00,213.000000,,2013-01-23 20:13:00,
2013-01-23 15:23:00,25.0,5.0,-100.00,SSW,198,4.0,12.0,41,0.00,,,0.00,213.000000,,2013-01-23 20:23:00,
2013-01-23 15:33:00,25.0,5.0,-100.00,SSW,198,4.0,12.0,41,0.00,,,0.00,213.000000,,2013-01-23 20:33:00,
2013-01-23 15:43:00,25.0,5.0,-100.00,SSW,198,4.0,12.0,41,0.00,,,0.00,213.000000,,2013-01-23 20:43:00,
2013-01-23 16:12:00,26.0,6.0,-100.00,SSE,158,4.0,11.0,42,0.00,,,0.00,152.000000,,2013-01-23 21:12:00,
2013-01-23 16:23:00,26.0,6.0,-100.00,SSE,158,4.0,11.0,42,0.00,,,0.00,152.000000,,2013-01-23 21:23:00,
2013-01-23 16:33:00,26.0,6.0,-100.00,SSE,158,4.0,11.0,42,0.00,,,0.00,152.000000,,2013-01-23 21:33:00,
2013-01-23 16:43:00,26.0,6.0,-100.00,SSE,158,4.0,11.0,42,0.00,,,0.00,152.000000,,2013-01-23 21:43:00,
2013-01-23 17:13:00,29.0,8.0,-100.00,SSW,195,7.0,10.0,41,0.00,,,-99.99,79.000000,,2013-01-23 22:13:00,
2013-01-23 17:23:00,29.0,8.0,-100.00,SSW,195,7.0,10.0,41,0.00,,,-99.99,79.000000,,2013-01-23 22:23:00,
2013-01-23 17:33:00,29.0,8.0,-100.00,SSW,195,7.0,10.0,41,0.00,,,-99.99,79.000000,,2013-01-23 22:33:00,
2013-01-23 17:43:00,29.0,8.0,-100.00,SSW,195,7.0,10.0,41,0.00,,,-99.99,79.000000,,2013-01-23 22:43:00,
2013-01-23 18:13:00,29.0,10.0,-100.00,WSW,241,3.0,10.0,44,0.00,,,0.00,24.000000,,2013-01-23 23:13:00,
2013-01-23 18:23:00,29.0,10.0,-100.00,WSW,241,3.0,10.0,44,0.00,,,0.00,24.000000,,2013-01-23 23:23:00,
2013-01-23 18:33:00,29.0,10.0,-100.00,WSW,241,3.0,10.0,44,0.00,,,0.00,24.000000,,2013-01-23 23:33:00,
2013-01-23 18:43:00,29.0,10.0,-100.00,WSW,241,3.0,10.0,44,0.00,,,0.00,24.000000,,2013-01-23 23:43:00,
2013-01-23 19:12:00,25.0,9.0,-100.00,NNE,28,5.0,8.0,50,0.00,,,0.00,1.000000,,2013-01-24 00:12:00,
2013-01-23 19:22:00,25.0,9.0,-100.00,NNE,28,5.0,8.0,50,0.00,,,0.00,1.000000,,2013-01-24 00:22:00,
2013-01-23 19:33:00,25.0,9.0,-100.00,NNE,28,5.0,8.0,50,0.00,,,0.00,1.000000,,2013-01-24 00:33:00,
2013-01-23 19:43:00,25.0,9.0,-100.00,NNE,28,5.0,8.0,50,0.00,,,0.00,1.000000,,2013-01-24 00:43:00,
2013-01-23 20:12:00,23.0,8.0,-100.00,NE,36,5.0,9.0,53,0.00,,,0.00,0.000000,,2013-01-24 01:12:00,
2013-01-23 20:23:00,23.0,8.0,-100.00,NE,36,5.0,9.0,53,0.00,,,0.00,0.000000,,2013-01-24 01:23:00,
2013-01-23 20:33:00,23.0,8.0,-100.00,NE,36,5.0,9.0,53,0.00,,,0.00,0.000000,,2013-01-24 01:33:00,
2013-01-23 20:43:00,23.0,8.0,-100.00,NE,36,5.0,9.0,53,0.00,,,0.00,0.000000,,2013-01-24 01:43:00,
2013-01-23 21:12:00,20.0,8.0,-100.00,SE,131,1.0,9.0,60,0.00,,,0.00,0.000000,,2013-01-24 02:12:00,
2013-01-23 21:23:00,20.0,8.0,-100.00,SE,131,1.0,9.0,60,0.00,,,0.00,0.000000,,2013-01-24 02:23:00,
2013-01-23 21:33:00,20.0,8.0,-100.00,SE,131,1.0,9.0,60,0.00,,,0.00,0.000000,,2013-01-24 02:33:00,
2013-01-23 21:42:00,20.0,8.0,-100.00,SE,131,1.0,9.0,60,0.00,,,0.00,0.000000,,2013-01-24 02:42:00,
2013-01-23 22:12:00,18.0,10.0,-100.00,NNW,329,0.0,7.0,69,0.00,,,0.00,0.000000,,2013-01-24 03:12:00,
2013-01-23 22:22:00,18.0,10.0,-100.00,NNW,329,0.0,7.0,69,0.00,,,0.00,0.000000,,2013-01-24 03:22:00,
2013-01-23 22:33:00,18.0,10.0,-100.00,NNW,329,0.0,7.0,69,0.00,,,0.00,0.000000,,2013-01-24 03:33:00,
2013-01-23 22:43:00,18.0,10.0,-100.00,NNW,329,0.0,7.0,69,0.00,,,0.00,0.000000,,2013-01-24 03:43:00,
2013-01-23 23:12:00,18.0,11.0,-100.00,SW,219,2.0,8.0,72,0.00,,,0.00,0.000000,,2013-01-24 04:12:00,
2013-01-23 23:22:00,18.0,11.0,-100.00,SW,219,2.0,8.0,72,0.00,,,0.00,0.000000,,2013-01-24 04:22:00,
2013-01-23 23:33:00,18.0,11.0,-100.00,SW,219,2.0,8.0,72,0.00,,,0.00,0.000000,,2013-01-24 04:33:00,
2013-01-23 23:42:00,18.0,11.0,-100.00,SW,219,2.0,8.0,72,0.00,,,0.00,0.000000,,2013-01-24 04:42:00,